Time,TemperatureF,DewpointF,PressureIn,WindDirection,WindDirectionDegrees,WindSpeedMPH,WindSpeedGustMPH,Humidity,HourlyPrecipIn,Conditions,Clouds,dailyrainin,SolarRadiationWatts/m^2,SoftwareType,DateUTC
2013-08-05 00:00:00,86.5,45.5,29.79,NW,304,7.0,15.0,24,0.00,,CLR,0.00,0.00,VWS V14.01,2013-08-05 07:00:00,
2013-08-05 00:05:00,86.5,45.5,29.79,NNW,334,7.0,14.0,24,0.00,,CLR,0.00,0.00,VWS V14.01,2013-08-05 07:05:00,
2013-08-05 00:10:00,86.3,45.3,29.79,NW,308,6.0,14.0,24,0.00,,CLR,0.00,0.00,VWS V14.01,2013-08-05 07:10:00,
2013-08-05 00:15:00,85.9,47.1,29.79,West,277,6.0,14.0,26,0.00,,CLR,0.00,0.00,VWS V14.01,2013-08-05 07:15:00,
2013-08-05 00:20:00,85.9,47.1,29.79,NW,304,12.0,16.0,26,0.00,,CLR,0.00,0.00,VWS V14.01,2013-08-05 07:20:00,
2013-08-05 00:25:00,86.1,46.2,29.79,NW,321,10.0,17.0,25,0.00,,CLR,0.00,0.00,VWS V14.01,2013-08-05 07:25:00,
2013-08-05 00:30:00,86.1,46.2,29.79,NW,311,10.0,17.0,25,0.00,,CLR,0.00,0.00,VWS V14.01,2013-08-05 07:30:00,
2013-08-05 00:35:00,86.1,45.1,29.79,NW,315,9.0,15.0,24,0.00,,CLR,0.00,0.00,VWS V14.01,2013-08-05 07:35:00,
2013-08-05 00:40:00,86.1,45.1,29.79,WNW,296,12.0,18.0,24,0.00,,CLR,0.00,0.00,VWS V14.01,2013-08-05 07:40:00,
2013-08-05 00:45:00,86.1,44.0,29.78,NW,311,7.0,16.0,23,0.00,,CLR,0.00,0.00,VWS V14.01,2013-08-05 07:45:00,
2013-08-05 00:50:00,86.1,44.0,29.78,WNW,300,10.0,11.0,23,0.00,,CLR,0.00,0.00,VWS V14.01,2013-08-05 07:50:00,
2013-08-05 00:55:00,86.1,44.0,29.78,WNW,302,15.0,20.0,23,0.00,,CLR,0.00,0.00,VWS V14.01,2013-08-05 07:55:00,
2013-08-05 01:00:00,86.1,44.0,29.78,NW,319,13.0,14.0,23,0.00,,CLR,0.00,0.00,VWS V14.01,2013-08-05 08:00:00,
2013-08-05 01:06:00,86.1,44.0,29.78,WNW,300,10.0,17.0,23,0.00,,CLR,0.00,0.00,VWS V14.01,2013-08-05 08:06:00,
2013-08-05 01:11:00,86.1,42.8,29.78,WNW,284,20.0,20.0,22,0.00,,CLR,0.00,0.00,VWS V14.01,2013-08-05 08:11:00,
2013-08-05 01:16:00,86.1,42.8,29.78,WNW,302,12.0,13.0,22,0.00,,CLR,0.00,0.00,VWS V14.01,2013-08-05 08:16:00,
2013-08-05 01:21:00,86.3,44.2,29.78,NW,306,15.0,16.0,23,0.00,,CLR,0.00,0.00,VWS V14.01,2013-08-05 08:21:00,
2013-08-05 01:26:00,86.3,41.8,29.78,NNW,329,11.0,18.0,21,0.00,,CLR,0.00,0.00,VWS V14.01,2013-08-05 08:26:00,
2013-08-05 01:31:00,86.5,42.0,29.78,North,349,17.0,17.0,21,0.00,,CLR,0.00,0.00,VWS V14.01,2013-08-05 08:31:00,
2013-08-05 01:36:00,86.3,40.5,29.78,WNW,289,8.0,16.0,20,0.00,,CLR,0.00,0.00,VWS V14.01,2013-08-05 08:36:00,
2013-08-05 01:42:00,85.9,40.2,29.78,WNW,292,13.0,16.0,20,0.00,,CLR,0.00,0.00,VWS V14.01,2013-08-05 08:42:00,
2013-08-05 01:47:00,86.1,39.1,29.77,WNW,287,16.0,19.0,19,0.00,,CLR,0.00,0.00,VWS V14.01,2013-08-05 08:47:00,
2013-08-05 01:52:00,86.1,39.1,29.77,WNW,292,12.0,18.0,19,0.00,,CLR,0.00,0.00,VWS V14.01,2013-08-05 08:52:00,
2013-08-05 01:57:00,86.1,37.7,29.77,WNW,300,14.0,22.0,18,0.00,,CLR,0.00,0.00,VWS V14.01,2013-08-05 08:57:00,
2013-08-05 02:02:00,86.1,37.7,29.77,WNW,299,14.0,18.0,18,0.00,,CLR,0.00,0.00,VWS V14.01,2013-08-05 09:02:00,
2013-08-05 02:07:00,86.1,36.2,29.77,NW,304,20.0,20.0,17,0.00,,CLR,0.00,0.00,VWS V14.01,2013-08-05 09:07:00,
2013-08-05 02:13:00,85.9,34.5,29.77,NW,315,12.0,16.0,16,0.00,,CLR,0.00,0.00,VWS V14.01,2013-08-05 09:13:00,
2013-08-05 02:18:00,85.9,36.1,29.77,WNW,294,13.0,20.0,17,0.00,,CLR,0.00,0.00,VWS V14.01,2013-08-05 09:18:00,
2013-08-05 02:23:00,86.1,36.2,29.77,West,274,16.0,20.0,17,0.00,,CLR,0.00,0.00,VWS V14.01,2013-08-05 09:23:00,
2013-08-05 02:28:00,86.1,34.7,29.77,NW,312,8.0,20.0,16,0.00,,CLR,0.00,0.00,VWS V14.01,2013-08-05 09:28:00,
2013-08-05 02:34:00,86.3,36.4,29.77,WNW,302,12.0,18.0,17,0.00,,CLR,0.00,0.00,VWS V14.01,2013-08-05 09:34:00,
2013-08-05 02:39:00,86.1,36.2,29.77,NW,306,7.0,16.0,17,0.00,,CLR,0.00,0.00,VWS V14.01,2013-08-05 09:39:00,
2013-08-05 02:44:00,85.7,35.9,29.77,NW,304,13.0,20.0,17,0.00,,CLR,0.00,0.00,VWS V14.01,2013-08-05 09:44:00,
2013-08-05 02:50:00,85.7,35.9,29.77,West,272,7.0,22.0,17,0.00,,CLR,0.00,0.00,VWS V14.01,2013-08-05 09:50:00,
2013-08-05 02:55:00,85.7,35.9,29.77,WNW,286,11.0,21.0,17,0.00,,CLR,0.00,0.00,VWS V14.01,2013-08-05 09:55:00,
2013-08-05 03:00:00,85.7,34.4,29.77,West,276,12.0,19.0,16,0.00,,CLR,0.00,0.00,VWS V14.01,2013-08-05 10:00:00,
2013-08-05 03:05:00,85.7,34.4,29.77,WNW,292,10.0,16.0,16,0.00,,CLR,0.00,0.00,VWS V14.01,2013-08-05 10:05:00,
2013-08-05 03:10:00,85.5,34.2,29.77,NW,309,12.0,12.0,16,0.00,,CLR,0.00,0.00,VWS V14.01,2013-08-05 10:10:00,
2013-08-05 03:16:00,85.5,34.2,29.76,NNW,331,9.0,13.0,16,0.00,,CLR,0.00,0.00,VWS V14.01,2013-08-05 10:16:00,
2013-08-05 03:21:00,85.5,35.8,29.76,WNW,303,12.0,13.0,17,0.00,,CLR,0.00,0.00,VWS V14.01,2013-08-05 10:21:00,
2013-08-05 03:27:00,85.5,35.8,29.76,NW,305,24.0,24.0,17,0.00,,CLR,0.00,0.00,VWS V14.01,2013-08-05 10:27:00,
2013-08-05 03:32:00,85.5,34.2,29.77,WNW,292,11.0,15.0,16,0.00,,CLR,0.00,0.00,VWS V14.01,2013-08-05 10:32:00,
2013-08-05 03:38:00,85.3,35.6,29.77,NW,310,16.0,18.0,17,0.00,,CLR,0.00,0.00,VWS V14.01,2013-08-05 10:38:00,
2013-08-05 03:43:00,85.5,34.2,29.77,WNW,298,13.0,19.0,16,0.00,,CLR,0.00,0.00,VWS V14.01,2013-08-05 10:43:00,
2013-08-05 03:47:00,85.5,34.2,29.77,WNW,286,13.0,17.0,16,0.00,,CLR,0.00,0.00,VWS V14.01,2013-08-05 10:47:00,
2013-08-05 03:53:00,85.7,34.4,29.77,WNW,302,7.0,21.0,16,0.00,,CLR,0.00,0.00,VWS V14.01,2013-08-05 10:53:00,
2013-08-05 03:58:00,85.5,34.2,29.77,WNW,298,16.0,18.0,16,0.00,,CLR,0.00,0.00,VWS V14.01,2013-08-05 10:58:00,
2013-08-05 04:03:00,85.5,34.2,29.77,WNW,296,9.0,19.0,16,0.00,,CLR,0.00,0.00,VWS V14.01,2013-08-05 11:03:00,
2013-08-05 04:09:00,85.3,35.6,29.77,WNW,288,17.0,19.0,17,0.00,,CLR,0.00,0.00,VWS V14.01,2013-08-05 11:09:00,
2013-08-05 04:14:00,85.3,35.6,29.77,NW,304,18.0,21.0,17,0.00,,CLR,0.00,0.00,VWS V14.01,2013-08-05 11:14:00,
2013-08-05 04:19:00,85.5,35.8,29.77,West,281,10.0,20.0,17,0.00,,CLR,0.00,0.00,VWS V14.01,2013-08-05 11:19:00,
2013-08-05 04:24:00,85.3,35.6,29.77,WNW,295,10.0,17.0,17,0.00,,CLR,0.00,0.00,VWS V14.01,2013-08-05 11:24:00,
2013-08-05 04:29:00,85.3,35.6,29.78,NW,323,16.0,23.0,17,0.00,,CLR,0.00,0.00,VWS V14.01,2013-08-05 11:29:00,
2013-08-05 04:35:00,85.3,35.6,29.78,WNW,290,8.0,23.0,17,0.00,,CLR,0.00,0.00,VWS V14.01,2013-08-05 11:35:00,
2013-08-05 04:40:00,85.1,35.4,29.78,WNW,300,21.0,24.0,17,0.00,,CLR,0.00,0.00,VWS V14.01,2013-08-05 11:40:00,
2013-08-05 04:45:00,85.1,33.9,29.77,West,274,12.0,22.0,16,0.00,,CLR,0.00,0.00,VWS V14.01,2013-08-05 11:45:00,
2013-08-05 04:50:00,85.1,33.9,29.77,NW,306,17.0,17.0,16,0.00,,CLR,0.00,0.00,VWS V14.01,2013-08-05 11:50:00,
2013-08-05 04:55:00,84.9,33.8,29.77,WSW,254,11.0,13.0,16,0.00,,CLR,0.00,0.00,VWS V14.01,2013-08-05 11:55:00,
2013-08-05 05:01:00,84.9,33.8,29.78,West,275,14.0,19.0,16,0.00,,CLR,0.00,0.00,VWS V14.01,2013-08-05 12:01:00,
2013-08-05 05:07:00,84.7,33.6,29.78,WNW,294,13.0,17.0,16,0.00,,CLR,0.00,0.00,VWS V14.01,2013-08-05 12:07:00,
2013-08-05 05:12:00,84.9,32.2,29.78,West,279,9.0,17.0,15,0.00,,CLR,0.00,0.00,VWS V14.01,2013-08-05 12:12:00,
2013-08-05 05:17:00,84.9,32.2,29.79,WNW,282,11.0,18.0,15,0.00,,CLR,0.00,0.00,VWS V14.01,2013-08-05 12:17:00,
2013-08-05 05:23:00,84.7,32.0,29.79,West,266,8.0,17.0,15,0.00,,CLR,0.00,0.00,VWS V14.01,2013-08-05 12:23:00,
2013-08-05 05:28:00,84.5,31.8,29.79,NW,323,11.0,18.0,15,0.00,,CLR,0.00,0.00,VWS V14.01,2013-08-05 12:28:00,
2013-08-05 05:33:00,84.5,31.8,29.79,WNW,292,15.0,21.0,15,0.00,,CLR,0.00,0.00,VWS V14.01,2013-08-05 12:33:00,
2013-08-05 05:39:00,84.7,32.0,29.79,West,273,11.0,21.0,15,0.00,,CLR,0.00,0.00,VWS V14.01,2013-08-05 12:39:00,
2013-08-05 05:44:00,84.7,32.0,29.79,WNW,293,7.0,19.0,15,0.00,,CLR,0.00,0.00,VWS V14.01,2013-08-05 12:44:00,
2013-08-05 05:50:00,84.7,32.0,29.80,West,264,5.0,21.0,15,0.00,,CLR,0.00,0.00,VWS V14.01,2013-08-05 12:50:00,
2013-08-05 05:55:00,84.5,30.1,29.80,WNW,284,16.0,18.0,14,0.00,,CLR,0.00,0.00,VWS V14.01,2013-08-05 12:55:00,
2013-08-05 06:00:00,84.5,30.1,29.80,WNW,290,13.0,17.0,14,0.00,,CLR,0.00,0.00,VWS V14.01,2013-08-05 13:00:00,
2013-08-05 06:05:00,84.5,31.8,29.80,West,275,8.0,19.0,15,0.00,,CLR,0.00,0.00,VWS V14.01,2013-08-05 13:05:00,
2013-08-05 06:10:00,84.3,31.7,29.80,West,276,9.0,17.0,15,0.00,,CLR,0.00,5.00,VWS V14.01,2013-08-05 13:10:00,
2013-08-05 06:15:00,84.1,33.1,29.80,NW,304,15.0,16.0,16,0.00,,CLR,0.00,9.00,VWS V14.01,2013-08-05 13:15:00,
2013-08-05 06:20:00,84.1,33.1,29.80,WNW,296,4.0,22.0,16,0.00,,CLR,0.00,12.00,VWS V14.01,2013-08-05 13:20:00,
2013-08-05 06:25:00,84.3,33.3,29.80,WNW,297,6.0,18.0,16,0.00,,CLR,0.00,16.00,VWS V14.01,2013-08-05 13:25:00,
2013-08-05 06:31:00,84.5,33.4,29.81,West,277,9.0,17.0,16,0.00,,CLR,0.00,23.00,VWS V14.01,2013-08-05 13:31:00,
2013-08-05 06:36:00,84.9,39.4,29.81,WNW,301,15.0,15.0,20,0.00,,CLR,0.00,25.00,VWS V14.01,2013-08-05 13:36:00,
2013-08-05 06:42:00,85.1,33.9,29.81,WNW,294,7.0,17.0,16,0.00,,CLR,0.00,32.00,VWS V14.01,2013-08-05 13:42:00,
2013-08-05 06:47:00,85.3,34.1,29.81,WNW,292,15.0,18.0,16,0.00,,CLR,0.00,35.00,VWS V14.01,2013-08-05 13:47:00,
2013-08-05 06:52:00,85.5,34.2,29.81,West,259,11.0,14.0,16,0.00,,CLR,0.00,76.00,VWS V14.01,2013-08-05 13:52:00,
2013-08-05 06:57:00,85.3,35.6,29.81,West,271,5.0,17.0,17,0.00,,CLR,0.00,109.00,VWS V14.01,2013-08-05 13:57:00,
2013-08-05 07:03:00,85.5,34.2,29.81,WNW,284,7.0,19.0,16,0.00,,CLR,0.00,137.00,VWS V14.01,2013-08-05 14:03:00,
2013-08-05 07:09:00,85.7,34.4,29.81,West,272,10.0,15.0,16,0.00,,CLR,0.00,162.00,VWS V14.01,2013-08-05 14:09:00,
2013-08-05 07:14:00,86.1,34.7,29.81,NW,314,11.0,19.0,16,0.00,,CLR,0.00,179.00,VWS V14.01,2013-08-05 14:14:00,
2013-08-05 07:20:00,86.1,34.7,29.82,WNW,295,10.0,20.0,16,0.00,,CLR,0.00,206.00,VWS V14.01,2013-08-05 14:20:00,
2013-08-05 07:25:00,86.3,34.9,29.82,WNW,288,10.0,21.0,16,0.00,,CLR,0.00,223.00,VWS V14.01,2013-08-05 14:25:00,
2013-08-05 07:30:00,86.7,33.6,29.82,WNW,302,12.0,22.0,15,0.00,,CLR,0.00,239.00,VWS V14.01,2013-08-05 14:30:00,
2013-08-05 07:35:00,87.2,34.0,29.82,West,272,16.0,22.0,15,0.00,,CLR,0.00,260.00,VWS V14.01,2013-08-05 14:35:00,
2013-08-05 07:40:00,87.6,35.9,29.82,WNW,292,6.0,18.0,16,0.00,,CLR,0.00,283.00,VWS V14.01,2013-08-05 14:40:00,
2013-08-05 07:45:00,88.0,32.9,29.82,WNW,282,11.0,18.0,14,0.00,,CLR,0.00,294.00,VWS V14.01,2013-08-05 14:45:00,
2013-08-05 07:50:00,88.4,31.4,29.82,West,272,11.0,19.0,13,0.00,,CLR,0.00,320.00,VWS V14.01,2013-08-05 14:50:00,
2013-08-05 07:55:00,88.8,31.7,29.82,West,259,14.0,17.0,13,0.00,,CLR,0.00,290.00,VWS V14.01,2013-08-05 14:55:00,
2013-08-05 08:00:00,89.0,31.8,29.83,West,269,8.0,18.0,13,0.00,,CLR,0.00,367.00,VWS V14.01,2013-08-05 15:00:00,
2013-08-05 08:05:00,89.7,32.4,29.83,NW,314,6.0,18.0,13,0.00,,CLR,0.00,387.00,VWS V14.01,2013-08-05 15:05:00,
2013-08-05 08:10:00,90.3,32.8,29.83,West,278,8.0,18.0,13,0.00,,CLR,0.00,422.00,VWS V14.01,2013-08-05 15:10:00,
2013-08-05 08:15:00,90.5,31.0,29.82,West,270,14.0,17.0,12,0.00,,CLR,0.00,431.00,VWS V14.01,2013-08-05 15:15:00,
2013-08-05 08:20:00,90.7,33.2,29.82,NW,304,12.0,18.0,13,0.00,,CLR,0.00,438.00,VWS V14.01,2013-08-05 15:20:00,
2013-08-05 08:25:00,91.0,33.4,29.82,WNW,301,13.0,17.0,13,0.00,,CLR,0.00,345.00,VWS V14.01,2013-08-05 15:25:00,
2013-08-05 08:30:00,91.2,33.5,29.82,NW,306,15.0,18.0,13,0.00,,CLR,0.00,471.00,VWS V14.01,2013-08-05 15:30:00,
2013-08-05 08:35:00,91.6,31.9,29.82,WNW,292,9.0,21.0,12,0.00,,CLR,0.00,478.00,VWS V14.01,2013-08-05 15:35:00,
2013-08-05 08:40:00,92.1,34.2,29.82,West,276,6.0,15.0,13,0.00,,CLR,0.00,499.00,VWS V14.01,2013-08-05 15:40:00,
2013-08-05 08:46:00,92.5,32.6,29.82,NW,322,9.0,13.0,12,0.00,,CLR,0.00,503.00,VWS V14.01,2013-08-05 15:46:00,
2013-08-05 08:51:00,92.7,32.7,29.82,WNW,287,7.0,12.0,12,0.00,,CLR,0.00,489.00,VWS V14.01,2013-08-05 15:51:00,
2013-08-05 08:56:00,93.4,33.3,29.82,West,279,14.0,15.0,12,0.00,,CLR,0.00,538.00,VWS V14.01,2013-08-05 15:56:00,
2013-08-05 09:02:00,93.8,31.4,29.82,NW,318,7.0,12.0,11,0.00,,FEW150,0.00,566.00,VWS V14.01,2013-08-05 16:02:00,
2013-08-05 09:07:00,94.5,31.9,29.82,West,276,6.0,11.0,11,0.00,,FEW150,0.00,577.00,VWS V14.01,2013-08-05 16:07:00,
2013-08-05 09:12:00,94.9,32.2,29.82,WNW,290,9.0,13.0,11,0.00,,FEW150,0.00,573.00,VWS V14.01,2013-08-05 16:12:00,
2013-08-05 09:18:00,95.1,32.4,29.82,WNW,287,8.0,13.0,11,0.00,,FEW150,0.00,610.00,VWS V14.01,2013-08-05 16:18:00,
2013-08-05 09:24:00,95.9,30.6,29.82,WNW,298,9.0,14.0,10,0.00,,FEW150,0.00,631.00,VWS V14.01,2013-08-05 16:24:00,
2013-08-05 09:30:00,96.6,33.5,29.82,WNW,296,7.0,12.0,11,0.00,,FEW150,0.00,645.00,VWS V14.01,2013-08-05 16:30:00,
2013-08-05 09:35:00,96.8,33.7,29.82,West,277,5.0,13.0,11,0.00,,FEW150,0.00,663.00,VWS V14.01,2013-08-05 16:35:00,
2013-08-05 09:40:00,97.3,31.7,29.82,NNW,330,7.0,10.0,10,0.00,,FEW150,0.00,684.00,VWS V14.01,2013-08-05 16:40:00,
2013-08-05 09:45:00,97.5,31.9,29.83,WNW,290,8.0,15.0,10,0.00,,FEW150,0.00,701.00,VWS V14.01,2013-08-05 16:45:00,
2013-08-05 09:50:00,97.5,31.9,29.83,West,277,5.0,11.0,10,0.00,,FEW150,0.00,715.00,VWS V14.01,2013-08-05 16:50:00,
2013-08-05 09:55:00,98.0,34.6,29.83,WSW,251,4.0,8.0,11,0.00,,FEW150,0.00,749.00,VWS V14.01,2013-08-05 16:55:00,
2013-08-05 10:00:00,97.8,32.1,29.83,West,275,4.0,6.0,10,0.00,,FEW120,0.00,631.00,VWS V14.01,2013-08-05 17:00:00,
2013-08-05 10:05:00,97.5,45.4,29.83,WSW,248,3.0,7.0,17,0.00,,FEW120,0.00,652.00,VWS V14.01,2013-08-05 17:05:00,
2013-08-05 10:10:00,97.1,41.8,29.83,WSW,247,6.0,8.0,15,0.00,,FEW120,0.00,737.00,VWS V14.01,2013-08-05 17:10:00,
2013-08-05 10:15:00,96.8,37.9,29.84,SSW,194,7.0,9.0,13,0.00,,FEW120,0.00,756.00,VWS V14.01,2013-08-05 17:15:00,
2013-08-05 10:20:00,97.1,40.0,29.84,South,178,11.0,13.0,14,0.00,,FEW120,0.00,782.00,VWS V14.01,2013-08-05 17:20:00,
2013-08-05 10:25:00,95.9,42.5,29.84,SSE,159,5.0,18.0,16,0.00,,FEW120,0.00,710.00,VWS V14.01,2013-08-05 17:25:00,
2013-08-05 10:30:00,94.9,43.3,29.85,SSE,158,12.0,15.0,17,0.00,,FEW120,0.00,814.00,VWS V14.01,2013-08-05 17:30:00,
2013-08-05 10:36:00,94.5,44.5,29.85,SSE,156,5.0,11.0,18,0.00,,FEW120,0.00,770.00,VWS V14.01,2013-08-05 17:36:00,
2013-08-05 10:43:00,94.5,47.3,29.85,SSE,155,8.0,12.0,20,0.00,,FEW120,0.00,854.00,VWS V14.01,2013-08-05 17:43:00,
2013-08-05 10:49:00,94.9,44.8,29.85,SSE,154,9.0,10.0,18,0.00,,FEW120,0.00,698.00,VWS V14.01,2013-08-05 17:49:00,
2013-08-05 10:54:00,94.3,48.4,29.85,SSE,153,7.0,10.0,21,0.00,,FEW120,0.00,587.00,VWS V14.01,2013-08-05 17:54:00,
2013-08-05 10:59:00,94.3,50.8,29.85,SSE,152,10.0,13.0,23,0.00,,FEW120,0.00,728.00,VWS V14.01,2013-08-05 17:59:00,
2013-08-05 11:04:00,94.0,51.8,29.85,SE,141,11.0,13.0,24,0.00,,CLR,0.00,807.00,VWS V14.01,2013-08-05 18:04:00,
2013-08-05 11:09:00,94.0,48.2,29.85,ESE,111,11.0,14.0,21,0.00,,CLR,0.00,728.00,VWS V14.01,2013-08-05 18:09:00,
2013-08-05 11:14:00,94.0,50.6,29.85,ESE,119,5.0,14.0,23,0.00,,CLR,0.00,613.00,VWS V14.01,2013-08-05 18:14:00,
2013-08-05 11:19:00,93.4,54.5,29.85,ESE,122,10.0,13.0,27,0.00,,CLR,0.00,548.00,VWS V14.01,2013-08-05 18:19:00,
2013-08-05 11:25:00,93.4,52.3,29.85,ESE,109,8.0,13.0,25,0.00,,CLR,0.00,629.00,VWS V14.01,2013-08-05 18:25:00,
2013-08-05 11:30:00,93.6,52.5,29.86,ESE,103,10.0,13.0,25,0.00,,CLR,0.00,810.00,VWS V14.01,2013-08-05 18:30:00,
2013-08-05 11:35:00,93.8,52.7,29.86,SE,141,4.0,14.0,25,0.00,,CLR,0.00,666.00,VWS V14.01,2013-08-05 18:35:00,
2013-08-05 11:41:00,93.8,54.8,29.86,East,97,14.0,14.0,27,0.00,,CLR,0.00,661.00,VWS V14.01,2013-08-05 18:41:00,
2013-08-05 11:46:00,94.3,54.2,29.85,ESE,102,3.0,11.0,26,0.00,,CLR,0.00,768.00,VWS V14.01,2013-08-05 18:46:00,
2013-08-05 11:52:00,94.0,52.9,29.85,SE,130,8.0,14.0,25,0.00,,CLR,0.00,816.00,VWS V14.01,2013-08-05 18:52:00,
2013-08-05 11:58:00,94.0,52.9,29.85,East,98,9.0,15.0,25,0.00,,CLR,0.00,933.00,VWS V14.01,2013-08-05 18:58:00,
2013-08-05 12:03:00,94.9,51.3,29.85,ESE,102,4.0,11.0,23,0.00,,BKN140,0.00,877.00,VWS V14.01,2013-08-05 19:03:00,
2013-08-05 12:08:00,95.6,53.1,29.85,SE,144,7.0,9.0,24,0.00,,BKN140,0.00,717.00,VWS V14.01,2013-08-05 19:08:00,
2013-08-05 12:13:00,95.4,52.9,29.85,East,97,7.0,8.0,24,0.00,,BKN140,0.00,921.00,VWS V14.01,2013-08-05 19:13:00,
2013-08-05 12:19:00,95.4,52.9,29.85,ESE,103,1.0,11.0,24,0.00,,BKN140,0.00,759.00,VWS V14.01,2013-08-05 19:19:00,
2013-08-05 12:24:00,95.4,50.6,29.85,ESE,115,4.0,11.0,22,0.00,,BKN140,0.00,1014.00,VWS V14.01,2013-08-05 19:24:00,
2013-08-05 12:29:00,96.1,51.1,29.84,SE,142,6.0,9.0,22,0.00,,BKN140,0.00,738.00,VWS V14.01,2013-08-05 19:29:00,
2013-08-05 12:34:00,95.9,51.0,29.84,East,98,5.0,12.0,22,0.00,,BKN140,0.00,802.00,VWS V14.01,2013-08-05 19:34:00,
2013-08-05 12:39:00,96.3,51.3,29.84,ESE,119,5.0,10.0,22,0.00,,BKN140,0.00,949.00,VWS V14.01,2013-08-05 19:39:00,
2013-08-05 12:45:00,97.1,50.7,29.84,ESE,121,7.0,13.0,21,0.00,,BKN140,0.00,984.00,VWS V14.01,2013-08-05 19:45:00,
2013-08-05 12:50:00,96.8,49.2,29.84,ESE,115,12.0,13.0,20,0.00,,BKN140,0.00,747.00,VWS V14.01,2013-08-05 19:50:00,
2013-08-05 12:56:00,97.3,49.6,29.84,East,101,7.0,9.0,20,0.00,,BKN140,0.00,805.00,VWS V14.01,2013-08-05 19:56:00,
2013-08-05 13:01:00,97.3,49.6,29.83,East,88,2.0,5.0,20,0.00,,BKN140,0.00,788.00,VWS V14.01,2013-08-05 20:01:00,
2013-08-05 13:06:00,97.5,49.7,29.83,ESE,111,8.0,12.0,20,0.00,,BKN140,0.00,918.00,VWS V14.01,2013-08-05 20:06:00,
2013-08-05 13:12:00,97.8,51.3,29.83,ESE,103,5.0,11.0,21,0.00,,BKN140,0.00,902.00,VWS V14.01,2013-08-05 20:12:00,
2013-08-05 13:17:00,97.8,51.3,29.83,ESE,107,4.0,8.0,21,0.00,,BKN140,0.00,1028.00,VWS V14.01,2013-08-05 20:17:00,
2013-08-05 13:22:00,98.0,50.1,29.83,ESE,121,3.0,10.0,20,0.00,,BKN140,0.00,972.00,VWS V14.01,2013-08-05 20:22:00,
2013-08-05 13:29:00,98.2,52.9,29.83,ESE,116,5.0,10.0,22,0.00,,BKN140,0.00,997.00,VWS V14.01,2013-08-05 20:29:00,
2013-08-05 13:34:00,98.5,50.5,29.83,SE,146,3.0,11.0,20,0.00,,BKN140,0.00,904.00,VWS V14.01,2013-08-05 20:34:00,
2013-08-05 13:39:00,98.7,50.7,29.83,East,101,7.0,10.0,20,0.00,,BKN140,0.00,976.00,VWS V14.01,2013-08-05 20:39:00,
2013-08-05 13:45:00,98.0,52.7,29.82,SSE,150,8.0,10.0,22,0.00,,BKN140,0.00,986.00,VWS V14.01,2013-08-05 20:45:00,
2013-08-05 13:50:00,98.2,51.6,29.82,SSE,150,2.0,9.0,21,0.00,,BKN140,0.00,984.00,VWS V14.01,2013-08-05 20:50:00,
2013-08-05 13:55:00,98.7,52.0,29.82,SSE,150,6.0,8.0,21,0.00,,BKN140,0.00,974.00,VWS V14.01,2013-08-05 20:55:00,
2013-08-05 14:00:00,99.0,51.0,29.81,SE,131,5.0,9.0,20,0.00,,SCT150,0.00,958.00,VWS V14.01,2013-08-05 21:00:00,
2013-08-05 14:06:00,99.0,48.1,29.81,SSE,149,2.0,5.0,18,0.00,,SCT150,0.00,946.00,VWS V14.01,2013-08-05 21:06:00,
2013-08-05 14:12:00,99.9,48.8,29.81,ESE,119,4.0,6.0,18,0.00,,SCT150,0.00,958.00,VWS V14.01,2013-08-05 21:12:00,
2013-08-05 14:18:00,100.4,50.7,29.80,SSE,148,5.0,6.0,19,0.00,,SCT150,0.00,919.00,VWS V14.01,2013-08-05 21:18:00,
2013-08-05 14:23:00,100.7,49.5,29.80,SSE,148,2.0,9.0,18,0.00,,SCT150,0.00,877.00,VWS V14.01,2013-08-05 21:23:00,
2013-08-05 14:28:00,99.7,51.5,29.80,ESE,110,4.0,5.0,20,0.00,,SCT150,0.00,847.00,VWS V14.01,2013-08-05 21:28:00,
2013-08-05 14:33:00,100.7,48.0,29.80,ESE,105,2.0,7.0,17,0.00,,SCT150,0.00,772.00,VWS V14.01,2013-08-05 21:33:00,
2013-08-05 14:39:00,101.2,46.8,29.80,SSE,147,4.0,9.0,16,0.00,,SCT150,0.00,610.00,VWS V14.01,2013-08-05 21:39:00,
2013-08-05 14:44:00,100.4,47.7,29.80,ESE,113,5.0,9.0,17,0.00,,SCT150,0.00,703.00,VWS V14.01,2013-08-05 21:44:00,
2013-08-05 14:49:00,100.2,49.1,29.79,East,101,7.0,7.0,18,0.00,,SCT150,0.00,860.00,VWS V14.01,2013-08-05 21:49:00,
2013-08-05 14:55:00,100.7,46.4,29.79,SSE,148,2.0,7.0,16,0.00,,SCT150,0.00,849.00,VWS V14.01,2013-08-05 21:55:00,
2013-08-05 15:00:00,102.8,46.3,29.78,SE,136,6.0,7.0,15,0.00,,CLR,0.00,847.00,VWS V14.01,2013-08-05 22:00:00,
2013-08-05 15:05:00,102.5,47.8,29.78,ESE,102,3.0,7.0,16,0.00,,CLR,0.00,800.00,VWS V14.01,2013-08-05 22:05:00,
2013-08-05 15:10:00,102.0,45.7,29.78,SSE,153,3.0,9.0,15,0.00,,CLR,0.00,842.00,VWS V14.01,2013-08-05 22:10:00,
2013-08-05 15:15:00,102.3,45.9,29.78,SSE,152,8.0,10.0,15,0.00,,CLR,0.00,879.00,VWS V14.01,2013-08-05 22:15:00,
2013-08-05 15:21:00,101.5,45.3,29.78,SSE,152,4.0,5.0,15,0.00,,CLR,0.00,875.00,VWS V14.01,2013-08-05 22:21:00,
2013-08-05 15:26:00,102.0,43.9,29.78,SSE,151,6.0,6.0,14,0.00,,CLR,0.00,833.00,VWS V14.01,2013-08-05 22:26:00,
2013-08-05 15:32:00,102.3,44.1,29.77,SSE,150,5.0,7.0,14,0.00,,CLR,0.00,824.00,VWS V14.01,2013-08-05 22:32:00,
2013-08-05 15:37:00,103.1,42.8,29.77,SE,132,5.0,8.0,13,0.00,,CLR,0.00,782.00,VWS V14.01,2013-08-05 22:37:00,
2013-08-05 15:43:00,102.5,42.3,29.77,SSE,153,4.0,7.0,13,0.00,,CLR,0.00,765.00,VWS V14.01,2013-08-05 22:43:00,
2013-08-05 15:48:00,102.8,40.5,29.77,SSE,153,3.0,9.0,12,0.00,,CLR,0.00,754.00,VWS V14.01,2013-08-05 22:48:00,
2013-08-05 15:54:00,102.3,42.2,29.77,SSE,153,4.0,8.0,13,0.00,,CLR,0.00,758.00,VWS V14.01,2013-08-05 22:54:00,
2013-08-05 15:59:00,102.8,40.5,29.77,East,99,8.0,8.0,12,0.00,,CLR,0.00,738.00,VWS V14.01,2013-08-05 22:59:00,
2013-08-05 16:04:00,103.1,40.7,29.76,SE,145,3.0,8.0,12,0.00,,CLR,0.00,714.00,VWS V14.01,2013-08-05 23:04:00,
2013-08-05 16:10:00,103.3,38.7,29.76,SE,132,4.0,9.0,11,0.00,,CLR,0.00,686.00,VWS V14.01,2013-08-05 23:10:00,
2013-08-05 16:15:00,103.8,39.0,29.76,ESE,109,7.0,8.0,11,0.00,,CLR,0.00,666.00,VWS V14.01,2013-08-05 23:15:00,
2013-08-05 16:20:00,104.4,37.0,29.76,East,100,3.0,11.0,10,0.00,,CLR,0.00,657.00,VWS V14.01,2013-08-05 23:20:00,
2013-08-05 16:25:00,103.3,43.0,29.76,SE,134,6.0,7.0,13,0.00,,CLR,0.00,656.00,VWS V14.01,2013-08-05 23:25:00,
2013-08-05 16:30:00,103.1,38.5,29.75,SE,125,3.0,7.0,11,0.00,,CLR,0.00,661.00,VWS V14.01,2013-08-05 23:30:00,
2013-08-05 16:35:00,103.1,40.7,29.75,East,99,3.0,8.0,12,0.00,,CLR,0.00,663.00,VWS V14.01,2013-08-05 23:35:00,
2013-08-05 16:41:00,104.1,39.2,29.75,East,99,2.0,5.0,11,0.00,,CLR,0.00,650.00,VWS V14.01,2013-08-05 23:41:00,
2013-08-05 16:46:00,103.3,38.7,29.74,East,99,3.0,6.0,11,0.00,,CLR,0.00,621.00,VWS V14.01,2013-08-05 23:46:00,
2013-08-05 16:51:00,103.1,38.5,29.74,East,99,3.0,5.0,11,0.00,,CLR,0.00,448.00,VWS V14.01,2013-08-05 23:51:00,
2013-08-05 16:57:00,103.6,36.5,29.74,ESE,111,3.0,7.0,10,0.00,,CLR,0.00,534.00,VWS V14.01,2013-08-05 23:57:00,
2013-08-05 17:02:00,104.1,39.2,29.74,ESE,114,4.0,5.0,11,0.00,,SCT180,0.00,540.00,VWS V14.01,2013-08-06 00:02:00,
2013-08-05 17:08:00,104.1,39.2,29.74,SE,146,4.0,7.0,11,0.00,,SCT180,0.00,512.00,VWS V14.01,2013-08-06 00:08:00,
2013-08-05 17:13:00,103.3,40.9,29.74,SE,146,5.0,7.0,12,0.00,,SCT180,0.00,487.00,VWS V14.01,2013-08-06 00:13:00,
2013-08-05 17:19:00,103.3,40.9,29.74,ESE,111,1.0,9.0,12,0.00,,SCT180,0.00,454.00,VWS V14.01,2013-08-06 00:19:00,
2013-08-05 17:24:00,103.3,40.9,29.74,ESE,109,7.0,10.0,12,0.00,,SCT180,0.00,422.00,VWS V14.01,2013-08-06 00:24:00,
2013-08-05 17:29:00,103.1,40.7,29.74,ESE,110,4.0,11.0,12,0.00,,SCT180,0.00,394.00,VWS V14.01,2013-08-06 00:29:00,
2013-08-05 17:35:00,103.3,40.9,29.74,East,97,3.0,11.0,12,0.00,,SCT180,0.00,374.00,VWS V14.01,2013-08-06 00:35:00,
2013-08-05 17:40:00,103.3,43.0,29.74,East,100,5.0,11.0,13,0.00,,SCT180,0.00,352.00,VWS V14.01,2013-08-06 00:40:00,
2013-08-05 17:45:00,102.8,42.6,29.74,SE,129,7.0,11.0,13,0.00,,SCT180,0.00,332.00,VWS V14.01,2013-08-06 00:45:00,
2013-08-05 17:51:00,102.3,42.2,29.74,SE,142,5.0,7.0,13,0.00,,SCT180,0.00,313.00,VWS V14.01,2013-08-06 00:51:00,
2013-08-05 17:57:00,102.3,44.1,29.74,ESE,109,7.0,12.0,14,0.00,,SCT180,0.00,287.00,VWS V14.01,2013-08-06 00:57:00,
2013-08-05 18:03:00,101.7,43.6,29.74,ESE,103,5.0,9.0,14,0.00,,CLR,0.00,267.00,VWS V14.01,2013-08-06 01:03:00,
2013-08-05 18:08:00,101.5,45.3,29.74,ESE,109,7.0,11.0,15,0.00,,CLR,0.00,250.00,VWS V14.01,2013-08-06 01:08:00,
2013-08-05 18:13:00,101.2,43.2,29.74,SE,130,7.0,10.0,14,0.00,,CLR,0.00,230.00,VWS V14.01,2013-08-06 01:13:00,
2013-08-05 18:18:00,101.2,45.1,29.74,East,101,7.0,9.0,15,0.00,,CLR,0.00,207.00,VWS V14.01,2013-08-06 01:18:00,
2013-08-05 18:25:00,101.0,43.1,29.74,ESE,105,5.0,11.0,14,0.00,,CLR,0.00,185.00,VWS V14.01,2013-08-06 01:25:00,
2013-08-05 18:30:00,101.0,43.1,29.74,ESE,113,3.0,10.0,14,0.00,,CLR,0.00,160.00,VWS V14.01,2013-08-06 01:30:00,
2013-08-05 18:35:00,101.0,44.9,29.74,ESE,103,4.0,9.0,15,0.00,,CLR,0.00,142.00,VWS V14.01,2013-08-06 01:35:00,
2013-08-05 18:40:00,100.7,46.4,29.74,East,96,5.0,7.0,16,0.00,,CLR,0.00,120.00,VWS V14.01,2013-08-06 01:40:00,
2013-08-05 18:47:00,99.9,45.7,29.74,East,97,3.0,7.0,16,0.00,,CLR,0.00,97.00,VWS V14.01,2013-08-06 01:47:00,
2013-08-05 18:52:00,99.7,45.6,29.74,East,101,2.0,6.0,16,0.00,,CLR,0.00,79.00,VWS V14.01,2013-08-06 01:52:00,
2013-08-05 18:57:00,99.4,46.9,29.74,East,101,1.0,3.0,17,0.00,,CLR,0.00,63.00,VWS V14.01,2013-08-06 01:57:00,
2013-08-05 19:03:00,98.7,47.9,29.75,ESE,103,0.0,2.0,18,0.00,,CLR,0.00,49.00,VWS V14.01,2013-08-06 02:03:00,
2013-08-05 19:08:00,98.0,45.8,29.75,ENE,70,7.0,9.0,17,0.00,,CLR,0.00,40.00,VWS V14.01,2013-08-06 02:08:00,
2013-08-05 19:15:00,97.8,44.1,29.75,NE,36,9.0,12.0,16,0.00,,CLR,0.00,21.00,VWS V14.01,2013-08-06 02:15:00,
2013-08-05 19:20:00,97.5,43.8,29.75,NNE,28,9.0,16.0,16,0.00,,CLR,0.00,14.00,VWS V14.01,2013-08-06 02:20:00,
2013-08-05 19:25:00,97.3,43.7,29.75,NNE,17,14.0,17.0,16,0.00,,CLR,0.00,12.00,VWS V14.01,2013-08-06 02:25:00,
2013-08-05 19:30:00,97.1,43.5,29.76,North,11,13.0,15.0,16,0.00,,CLR,0.00,9.00,VWS V14.01,2013-08-06 02:30:00,
2013-08-05 19:35:00,96.6,43.1,29.76,North,5,6.0,15.0,16,0.00,,CLR,0.00,5.00,VWS V14.01,2013-08-06 02:35:00,
2013-08-05 19:40:00,96.1,44.3,29.76,North,5,11.0,15.0,17,0.00,,CLR,0.00,0.00,VWS V14.01,2013-08-06 02:40:00,
2013-08-05 19:45:00,95.4,45.2,29.76,North,5,11.0,17.0,18,0.00,,CLR,0.00,0.00,VWS V14.01,2013-08-06 02:45:00,
2013-08-05 19:50:00,94.9,43.3,29.76,North,5,5.0,15.0,17,0.00,,CLR,0.00,0.00,VWS V14.01,2013-08-06 02:50:00,
2013-08-05 19:55:00,94.7,44.7,29.76,North,9,10.0,12.0,18,0.00,,CLR,0.00,0.00,VWS V14.01,2013-08-06 02:55:00,
2013-08-05 20:01:00,94.3,44.3,29.76,North,360,12.0,15.0,18,0.00,,CLR,0.00,0.00,VWS V14.01,2013-08-06 03:01:00,
2013-08-05 20:06:00,94.3,44.3,29.76,North,360,15.0,16.0,18,0.00,,CLR,0.00,0.00,VWS V14.01,2013-08-06 03:06:00,
2013-08-05 20:11:00,94.0,44.1,29.76,North,360,11.0,12.0,18,0.00,,CLR,0.00,0.00,VWS V14.01,2013-08-06 03:11:00,
2013-08-05 20:16:00,93.6,43.8,29.76,North,355,13.0,16.0,18,0.00,,CLR,0.00,0.00,VWS V14.01,2013-08-06 03:16:00,
2013-08-05 20:21:00,93.6,43.8,29.76,North,355,14.0,19.0,18,0.00,,CLR,0.00,0.00,VWS V14.01,2013-08-06 03:21:00,
2013-08-05 20:26:00,93.4,43.6,29.76,North,355,12.0,14.0,18,0.00,,CLR,0.00,0.00,VWS V14.01,2013-08-06 03:26:00,
2013-08-05 20:32:00,92.9,43.2,29.77,North,355,9.0,13.0,18,0.00,,CLR,0.00,0.00,VWS V14.01,2013-08-06 03:32:00,
2013-08-05 20:37:00,92.3,44.1,29.77,North,355,8.0,13.0,19,0.00,,CLR,0.00,0.00,VWS V14.01,2013-08-06 03:37:00,
2013-08-05 20:45:00,91.8,43.7,29.77,North,355,12.0,15.0,19,0.00,,CLR,0.00,0.00,VWS V14.01,2013-08-06 03:45:00,
2013-08-05 20:50:00,91.4,44.7,29.77,North,350,9.0,16.0,20,0.00,,CLR,0.00,0.00,VWS V14.01,2013-08-06 03:50:00,
2013-08-05 20:55:00,90.7,44.2,29.77,North,350,13.0,17.0,20,0.00,,CLR,0.00,0.00,VWS V14.01,2013-08-06 03:55:00,
2013-08-05 21:00:00,90.7,42.8,29.78,North,349,12.0,12.0,19,0.00,,CLR,0.00,0.00,VWS V14.01,2013-08-06 04:00:00,
2013-08-05 21:01:00,90.7,44.2,29.78,North,349,6.0,12.0,20,0.00,,CLR,0.00,0.00,VWS V14.01,2013-08-06 04:01:00,
2013-08-05 21:02:00,90.7,42.8,29.78,North,349,10.0,12.0,19,0.00,,CLR,0.00,0.00,VWS V14.01,2013-08-06 04:02:00,
2013-08-05 21:03:00,90.7,42.8,29.78,NNW,348,10.0,13.0,19,0.00,,CLR,0.00,0.00,VWS V14.01,2013-08-06 04:03:00,
2013-08-05 21:08:00,90.7,42.8,29.78,NNW,347,14.0,17.0,19,0.00,,CLR,0.00,0.00,VWS V14.01,2013-08-06 04:08:00,
2013-08-05 21:09:00,90.7,41.4,29.78,NNW,347,9.0,17.0,18,0.00,,CLR,0.00,0.00,VWS V14.01,2013-08-06 04:09:00,
2013-08-05 21:14:00,90.7,42.8,29.78,NNW,344,14.0,18.0,19,0.00,,CLR,0.00,0.00,VWS V14.01,2013-08-06 04:14:00,
2013-08-05 21:19:00,91.0,43.1,29.79,NNW,340,13.0,18.0,19,0.00,,CLR,0.00,0.00,VWS V14.01,2013-08-06 04:19:00,
2013-08-05 21:24:00,91.0,43.1,29.79,NNW,340,5.0,16.0,19,0.00,,CLR,0.00,0.00,VWS V14.01,2013-08-06 04:24:00,
2013-08-05 21:29:00,90.7,41.4,29.79,NNW,340,10.0,14.0,18,0.00,,CLR,0.00,0.00,VWS V14.01,2013-08-06 04:29:00,
2013-08-05 21:34:00,90.3,42.5,29.79,NNW,340,9.0,11.0,19,0.00,,CLR,0.00,0.00,VWS V14.01,2013-08-06 04:34:00,
2013-08-05 21:39:00,89.9,42.2,29.79,NNW,339,6.0,15.0,19,0.00,,CLR,0.00,0.00,VWS V14.01,2013-08-06 04:39:00,
2013-08-05 21:44:00,89.5,41.8,29.79,NNW,337,6.0,13.0,19,0.00,,CLR,0.00,0.00,VWS V14.01,2013-08-06 04:44:00,
2013-08-05 21:49:00,89.0,42.8,29.79,NNW,338,3.0,11.0,20,0.00,,CLR,0.00,0.00,VWS V14.01,2013-08-06 04:49:00,
2013-08-05 21:54:00,88.8,42.6,29.79,NNW,331,3.0,9.0,20,0.00,,CLR,0.00,0.00,VWS V14.01,2013-08-06 04:54:00,
2013-08-05 21:59:00,88.8,42.6,29.79,North,350,6.0,10.0,20,0.00,,CLR,0.00,0.00,VWS V14.01,2013-08-06 04:59:00,
2013-08-05 22:04:00,88.6,42.4,29.79,NNW,338,7.0,13.0,20,0.00,,CLR,0.00,0.00,VWS V14.01,2013-08-06 05:04:00,
2013-08-05 22:09:00,88.4,42.3,29.79,NNW,327,3.0,13.0,20,0.00,,CLR,0.00,0.00,VWS V14.01,2013-08-06 05:09:00,
2013-08-05 22:14:00,88.6,42.4,29.80,NW,318,9.0,12.0,20,0.00,,CLR,0.00,0.00,VWS V14.01,2013-08-06 05:14:00,
2013-08-05 22:19:00,88.4,42.3,29.80,NNW,331,6.0,13.0,20,0.00,,CLR,0.00,0.00,VWS V14.01,2013-08-06 05:19:00,
2013-08-05 22:24:00,88.4,42.3,29.80,NW,321,5.0,11.0,20,0.00,,CLR,0.00,0.00,VWS V14.01,2013-08-06 05:24:00,
2013-08-05 22:29:00,88.2,43.4,29.80,NW,311,6.0,10.0,21,0.00,,CLR,0.00,0.00,VWS V14.01,2013-08-06 05:29:00,
2013-08-05 22:34:00,88.2,42.1,29.80,NNW,344,4.0,11.0,20,0.00,,CLR,0.00,0.00,VWS V14.01,2013-08-06 05:34:00,
2013-08-05 22:39:00,87.8,43.0,29.80,NW,325,5.0,9.0,21,0.00,,CLR,0.00,0.00,VWS V14.01,2013-08-06 05:39:00,
2013-08-05 22:44:00,87.4,45.1,29.80,WNW,298,7.0,8.0,23,0.00,,CLR,0.00,0.00,VWS V14.01,2013-08-06 05:44:00,
2013-08-05 22:49:00,87.2,44.9,29.80,NW,314,2.0,9.0,23,0.00,,CLR,0.00,0.00,VWS V14.01,2013-08-06 05:49:00,
2013-08-05 22:54:00,87.0,44.8,29.80,WNW,301,6.0,12.0,23,0.00,,CLR,0.00,0.00,VWS V14.01,2013-08-06 05:54:00,
2013-08-05 23:00:00,87.0,43.6,29.80,NW,317,4.0,12.0,22,0.00,,CLR,0.00,0.00,VWS V14.01,2013-08-06 06:00:00,
2013-08-05 23:05:00,87.0,43.6,29.80,NW,311,5.0,10.0,22,0.00,,CLR,0.00,0.00,VWS V14.01,2013-08-06 06:05:00,
2013-08-05 23:10:00,87.0,43.6,29.80,WNW,288,6.0,11.0,22,0.00,,CLR,0.00,0.00,VWS V14.01,2013-08-06 06:10:00,
2013-08-05 23:15:00,87.0,43.6,29.80,WNW,288,3.0,9.0,22,0.00,,CLR,0.00,0.00,VWS V14.01,2013-08-06 06:15:00,
2013-08-05 23:20:00,86.5,44.3,29.80,NW,315,5.0,11.0,23,0.00,,CLR,0.00,0.00,VWS V14.01,2013-08-06 06:20:00,
2013-08-05 23:25:00,86.5,44.3,29.80,WNW,298,5.0,13.0,23,0.00,,CLR,0.00,0.00,VWS V14.01,2013-08-06 06:25:00,
2013-08-05 23:30:00,86.3,43.0,29.80,NW,318,7.0,12.0,22,0.00,,CLR,0.00,0.00,VWS V14.01,2013-08-06 06:30:00,
2013-08-05 23:35:00,86.3,43.0,29.80,NW,317,5.0,12.0,22,0.00,,CLR,0.00,0.00,VWS V14.01,2013-08-06 06:35:00,
2013-08-05 23:40:00,86.3,41.8,29.80,NNW,333,5.0,9.0,21,0.00,,CLR,0.00,0.00,VWS V14.01,2013-08-06 06:40:00,
2013-08-05 23:45:00,86.3,41.8,29.80,WNW,286,4.0,13.0,21,0.00,,CLR,0.00,0.00,VWS V14.01,2013-08-06 06:45:00,
2013-08-05 23:50:00,86.3,41.8,29.80,WNW,288,7.0,14.0,21,0.00,,CLR,0.00,0.00,VWS V14.01,2013-08-06 06:50:00,
2013-08-05 23:55:00,86.5,40.7,29.80,NW,304,8.0,14.0,20,0.00,,CLR,0.00,0.00,VWS V14.01,2013-08-06 06:55:00,